Location: Zagreb
(45.8000°N, 16.0000°E)
Time: 22:33:34
(UTC+01:00)

Tiros 1 despin weight - Pass Details

Date: 01 February 2020
Orbit: 594 x 642 km, 48.2° (Epoch: 24 February)

Event Time Altitude Azimuth Distance (km) Brightness Sun altitude
Rises 14:16:36 0° 288° (WNW) 2,888 ? 20.8°
Reaches altitude 10° 14:19:01 10° 280° (W) 1,988 ? 20.6°
Maximum altitude 14:23:13 37° 214° (SW) 978 ? 20.2°
Drops below altitude 10° 14:27:28 10° 147° (SSE) 2,006 ? 19.7°
Sets 14:29:55 0° 139° (SE) 2,917 ? 19.5°
